Location: St. Louis
(38.6270°N, 90.1994°W)
Time: 13:17:10
(UTC-06:00)

Transit 2A - Pass Details

Date: 04 December 2021
Orbit: 591 x 967 km, 66.7° (Epoch: 17 January)

Event Time Altitude Azimuth Distance (km) Brightness Sun altitude
Rises 22:42:54 0° 181° (S) 3,210 - -68.1°
Reaches altitude 10° 22:45:22 10° 173° (S) 2,348 - -68.5°
Maximum altitude 22:50:16 35° 108° (ESE) 1,335 - -69.2°
Drops below altitude 10° 22:55:37 10° 45° (NE) 2,582 - -69.9°
Sets 22:58:26 0° 37° (NE) 3,573 - -70.2°
